KANOPUS-V 6 (43877 NORAD) Tracking and Keplerian Element Data

This shows tracking and keplerian element data for the satellite.

Feedback or suggestion? Click here.




ElementValue
Catalog43877
NameKANOPUS-V 6
Epoch Orbit253
Epoch Day26.22516794
Epoch Year2019
RAAN296.1124
Inclination97.4677
Eccentricity0.0007142
Argument of Perigee355.2451
Mean Anonmoly4.8715
Mean Motion15.20307374
Decay Rate2E-06
L11 43877U 18111B 19026.22516794 .00000200 00000-0 12370-4 0 9994
L22 43877 97.4677 296.1124 0007142 355.2451 4.8715 15.20307374 2532

Live tracking and technical data element details for KANOPUS-V 6 (NORAD 43877). KANOPUS-V 6 can be tracked NOW for your location showing map with azimuth and elevation plus other details from your city location.

Track the satellite on the map from your city or location and see movement details for azimuth, elevation, latitude, longitude, range, height, and movement on the map or in text.







IsCatalogInMostPopularTable: catalog: 43877, numindb: 69
Update: records affected: 1



GetName: 43877 KANOPUS-V 6

Hit Count: updated at: Tue, 16 Jul 2019 14:03:32 GMT